This is the latest recevied weather packets stored in our database for station/object KL4TQ. If no packets are shown the sender has not sent any weather packets the latest 10 day(s).
| Time | Temp. | Humidity | Pressure | Rain* | Wind** | Luminosity | Snow |
|---|---|---|---|---|---|---|---|
| 1778038868 | 5° C | 82% | 857 hPa | 0 mm | - | 133 W/m² | - |
| 1778038570 | 5° C | 80% | 857 hPa | 0 mm | - | 131 W/m² | - |
| 1778038269 | 5° C | 80% | 857 hPa | 0 mm | - | 146 W/m² | - |
| 1778037968 | 5° C | 78% | 857 hPa | 0 mm | - | 151 W/m² | - |
| 1778037669 | 5° C | 77% | 857 hPa | 0 mm | - | 151 W/m² | - |
| 1778037369 | 5.56° C | 77% | 857 hPa | 0 mm | - | 159 W/m² | - |
| 1778037068 | 5.56° C | 77% | 857 hPa | 0 mm | - | 149 W/m² | - |
| 1778036768 | 5.56° C | 77% | 857 hPa | 0 mm | - | 146 W/m² | - |
| 1778036469 | 6.11° C | 76% | 857 hPa | 0 mm | - | 161 W/m² | - |
| 1778036168 | 6.11° C | 75% | 857 hPa | 0 mm | - | 187 W/m² | - |
| 1778035869 | 6.67° C | 75% | 857 hPa | 0 mm | - | 141 W/m² | - |
| 1778035569 | 6.67° C | 75% | 857 hPa | 0 mm | - | 157 W/m² | - |
| 1778035268 | 6.67° C | 73% | 857 hPa | 0 mm | - | 134 W/m² | - |
| 1778034969 | 7.22° C | 71% | 857 hPa | 0 mm | - | 266 W/m² | - |
| 1778034669 | 7.22° C | 75% | 857 hPa | 0 mm | - | 388 W/m² | - |
| 1778034369 | 7.22° C | 74% | 857 hPa | 0 mm | - | 281 W/m² | - |
| 1778034069 | 6.67° C | 75% | 857 hPa | 0 mm | - | 404 W/m² | - |
| 1778033769 | 6.67° C | 75% | 857 hPa | 0 mm | - | 260 W/m² | - |
| 1778033468 | 6.67° C | 77% | 857 hPa | 0 mm | - | 299 W/m² | - |
| 1778033170 | 6.67° C | 78% | 857 hPa | 0 mm | - | 225 W/m² | - |
| 1778032868 | 6.67° C | 78% | 857 hPa | 0 mm | - | 255 W/m² | - |
| 1778032569 | 6.67° C | 78% | 857 hPa | 0 mm | - | 274 W/m² | - |
| 1778032269 | 6.67° C | 79% | 857 hPa | 0 mm | - | 261 W/m² | - |
| 1778031969 | 6.67° C | 79% | 857 hPa | 0 mm | - | 301 W/m² | - |
| 1778031668 | 6.67° C | 79% | 857 hPa | 0 mm | - | 292 W/m² | - |
* Rain latest hour (hover to see other rain measurements)
** Current wind speed in m/s (hover to see current wind gust speed)